Date String (YYYY-MM-DD hh:mm:ss) UTC,Instrument flags,Ambient pressure (hPa),Sample flow (lpm),Bypass flow (lpm),Sample temperature (°C),Ambient temperature (°C),ASC tube jacket temperature (°C),LED temperature (°C),Box temperature (°C),Sample RH (%),Span deviation,Mass concentration (μg/m³),Mass concentration (μg/m³),Mass concentration (μg/m³)
DateTimeUTC,F1_M11,P_M11,Q1_M11,Q2_M11,T1_M11,T2_M11,T3_M11,T4_M11,T5_M11,U1_M11,ZSPAN_M11,X0_M11,X2_M11,X1_M11
2023-01-14 01:00:00,,0827.3,5.00,0.00,26.7,25.3,00.0,35.6,28.5,11.1,0005.0,0026.63,0015.27,0013.85
2023-01-14 01:01:00,,0827.4,5.00,0.00,26.7,25.3,00.0,35.6,28.5,11.1,0005.0,0026.79,0015.24,0013.82
2023-01-14 01:02:00,,0827.2,5.00,0.00,26.7,25.3,00.0,35.6,28.5,11.1,0004.9,0026.60,0015.43,0013.97
2023-01-14 01:03:00,,0827.2,5.00,0.00,26.7,25.2,00.0,35.6,28.5,11.0,0004.9,0028.04,0015.63,0014.10
2023-01-14 01:04:00,,0827.2,5.00,0.00,26.7,25.1,00.0,35.6,28.5,11.0,0004.9,0029.09,0015.73,0014.15
2023-01-14 01:05:00,,0827.2,5.00,0.00,26.7,25.0,00.0,35.6,28.4,11.0,0004.8,0028.26,0015.78,0014.17
2023-01-14 01:06:00,,0827.2,4.99,0.00,26.6,25.0,00.0,35.5,28.4,11.1,0004.4,0028.68,0015.83,0014.18
2023-01-14 01:07:00,,0827.2,5.01,0.00,26.6,24.9,00.0,35.5,28.4,11.1,0004.2,0028.59,0015.90,0014.20
2023-01-14 01:08:00,,0827.2,4.99,0.00,26.6,25.0,00.0,35.5,28.4,11.2,0004.2,0028.97,0015.97,0014.26
2023-01-14 01:09:00,,0827.2,5.00,0.00,26.6,25.0,00.0,35.5,28.4,11.2,0004.0,0029.47,0016.05,0014.35
2023-01-14 01:10:00,,0827.2,5.01,0.00,26.6,25.0,00.0,35.5,28.4,11.1,0003.8,0029.27,0016.15,0014.46
2023-01-14 01:11:00,,0827.1,4.98,0.00,26.6,25.1,00.0,35.5,28.4,11.0,0003.7,0028.85,0016.26,0014.51
2023-01-14 01:12:00,,0827.1,4.99,0.00,26.6,25.1,00.0,35.5,28.4,11.0,0003.6,0028.32,0016.22,0014.45
2023-01-14 01:13:00,,0827.2,4.99,0.00,26.6,25.1,00.0,35.5,28.4,11.0,0003.7,0028.14,0016.06,0014.33
2023-01-14 01:14:00,,0827.2,5.00,0.00,26.6,25.2,00.0,35.5,28.4,10.9,0003.4,0027.01,0015.98,0014.27
2023-01-14 01:15:00,,0827.1,5.00,0.00,26.6,25.2,00.0,35.5,28.4,11.0,0003.1,0025.92,0015.97,0014.29
2023-01-14 01:16:00,,0827.1,5.01,0.00,26.6,25.2,00.0,35.5,28.4,11.1,0003.4,0025.69,0015.95,0014.33
2023-01-14 01:17:00,,0827.1,4.99,0.00,26.6,25.2,00.0,35.5,28.4,11.1,0003.4,0024.92,0015.98,0014.42
2023-01-14 01:18:00,,0827.1,4.98,0.00,26.6,25.2,00.0,35.4,28.4,11.1,0003.4,0024.77,0015.95,0014.41
2023-01-14 01:19:00,,0827.4,5.00,0.00,26.6,25.2,00.0,35.4,28.4,11.1,0003.4,0024.22,0015.93,0014.36
2023-01-14 01:20:00,,0827.1,5.01,0.00,26.6,25.2,00.0,35.4,28.4,11.1,0003.3,0023.42,0015.98,0014.36
2023-01-14 01:21:00,,0827.1,5.01,0.00,26.6,25.2,00.0,35.4,28.4,11.1,0003.3,0023.44,0016.04,0014.42
2023-01-14 01:22:00,,0827.1,5.00,0.00,26.6,25.2,00.0,35.4,28.4,11.1,0003.3,0023.15,0016.20,0014.55
2023-01-14 01:23:00,,0827.1,5.00,0.00,26.6,25.2,00.0,35.4,28.4,11.1,0002.9,0023.75,0016.41,0014.79
2023-01-14 01:24:00,,0827.2,4.99,0.00,26.6,25.1,00.0,35.4,28.4,11.0,0002.7,0024.23,0016.71,0015.10
2023-01-14 01:25:00,,0827.1,4.99,0.00,26.5,24.9,00.0,35.4,28.2,10.7,0003.1,0024.04,0016.90,0015.33
2023-01-14 01:26:00,,0827.6,5.00,0.00,26.5,24.7,00.0,35.4,28.2,10.7,0003.5,0024.00,0017.11,0015.54
2023-01-14 01:27:00,,0827.2,5.02,0.00,26.5,24.8,00.0,35.4,28.2,10.7,0003.8,0023.96,0017.19,0015.66
2023-01-14 01:28:00,,0827.4,5.01,0.00,26.5,24.8,00.0,35.4,28.2,10.8,0004.4,0023.75,0017.06,0015.59
2023-01-14 01:29:00,,0827.4,5.00,0.00,26.5,24.9,00.0,35.4,28.2,10.9,0005.2,0023.65,0017.10,0015.63
2023-01-14 01:30:00,,0827.0,4.99,0.00,26.5,24.9,00.0,35.4,28.2,11.0,0005.3,0023.76,0017.19,0015.78
2023-01-14 01:31:00,,0827.1,5.00,0.00,26.5,24.9,00.0,35.4,28.2,11.2,0005.3,0023.76,0017.22,0015.85
2023-01-14 01:32:00,,0827.5,4.98,0.00,26.5,24.9,00.0,35.4,28.2,11.2,0004.8,0024.16,0017.14,0015.78
2023-01-14 01:33:00,,0827.5,5.00,0.00,26.5,25.0,00.0,35.3,28.2,11.2,0004.5,0024.77,0017.08,0015.73
2023-01-14 01:34:00,,0827.4,5.00,0.00,26.4,25.0,00.0,35.3,28.2,11.2,0004.4,0025.17,0017.07,0015.69
2023-01-14 01:35:00,,0827.0,5.00,0.00,26.4,24.9,00.0,35.3,28.2,11.3,0004.3,0025.32,0017.13,0015.69
2023-01-14 01:36:00,,0827.1,4.98,0.00,26.4,24.9,00.0,35.3,28.2,11.2,0004.2,0025.38,0017.16,0015.70
2023-01-14 01:37:00,,0827.0,4.99,0.00,26.4,24.9,00.0,35.3,28.2,11.1,0004.3,0024.89,0017.06,0015.62
2023-01-14 01:38:00,,0826.9,4.99,0.00,26.4,24.9,00.0,35.3,28.2,11.2,0003.8,0024.93,0017.19,0015.73
2023-01-14 01:39:00,,0826.9,5.00,0.00,26.4,25.0,00.0,35.3,28.2,11.2,0003.0,0025.61,0017.60,0016.08
2023-01-14 01:40:00,,0827.0,5.01,0.00,26.4,25.0,00.0,35.3,28.2,11.2,0002.7,0025.83,0017.78,0016.25
2023-01-14 01:41:00,,0827.2,5.00,0.00,26.4,25.0,00.0,35.3,28.2,11.1,0002.7,0025.52,0017.61,0016.08
2023-01-14 01:42:00,,0826.9,4.99,0.00,26.4,25.0,00.0,35.3,28.2,11.1,0003.1,0025.19,0017.47,0015.99
2023-01-14 01:43:00,,0827.0,5.01,0.00,26.4,25.0,00.0,35.3,28.2,11.0,0003.7,0024.44,0017.02,0015.56
2023-01-14 01:44:00,,0826.9,5.01,0.00,26.4,24.9,00.0,35.3,28.2,10.9,0004.3,0023.00,0016.31,0014.96
2023-01-14 01:45:00,,0826.9,4.99,0.00,26.4,24.9,00.0,35.3,28.2,10.9,0004.8,0021.43,0015.48,0014.23
2023-01-14 01:46:00,,0827.2,5.00,0.00,26.4,24.9,00.0,35.3,28.2,10.9,0005.0,0020.34,0014.63,0013.48
2023-01-14 01:47:00,,0827.0,4.99,0.00,26.4,24.8,00.0,35.3,28.1,10.9,0005.1,0019.68,0013.87,0012.77
2023-01-14 01:48:00,,0826.8,5.01,0.00,26.3,24.6,00.0,35.3,28.1,11.0,0005.1,0019.12,0013.35,0012.30
2023-01-14 01:49:00,,0826.9,5.01,0.00,26.3,24.4,00.0,35.2,28.0,11.1,0004.7,0019.04,0012.94,0011.89
2023-01-14 01:50:00,,0826.8,5.00,0.00,26.3,24.3,00.0,35.2,28.0,11.2,0004.8,0018.32,0012.42,0011.39
2023-01-14 01:51:00,,0827.1,5.00,0.00,26.2,24.3,00.0,35.2,28.0,11.2,0004.6,0018.23,0011.98,0011.00
2023-01-14 01:52:00,,0826.9,5.00,0.00,26.2,24.4,00.0,35.2,28.0,11.3,0004.6,0018.76,0011.82,0010.83
2023-01-14 01:53:00,,0826.9,4.99,0.00,26.2,24.5,00.0,35.2,28.0,11.3,0004.3,0018.67,0011.50,0010.53
2023-01-14 01:54:00,,0826.8,5.00,0.00,26.2,24.6,00.0,35.2,28.0,11.2,0004.0,0018.54,0011.56,0010.60
2023-01-14 01:55:00,,0826.7,4.99,0.00,26.2,24.7,00.0,35.1,28.0,11.0,0004.3,0018.89,0011.85,0010.86
2023-01-14 01:56:00,,0826.8,4.99,0.00,26.2,24.7,00.0,35.1,28.0,10.9,0004.4,0019.40,0012.21,0011.22
2023-01-14 01:57:00,,0827.0,5.00,0.00,26.2,24.7,00.0,35.1,28.0,11.0,0004.1,0019.68,0012.67,0011.64
2023-01-14 01:58:00,,0826.9,5.00,0.00,26.2,24.8,00.0,35.1,28.0,11.0,0003.8,0020.32,0013.05,0012.02
2023-01-14 01:59:00,,0826.9,4.99,0.00,26.2,24.8,00.0,35.1,28.0,11.0,0003.8,0021.21,0013.43,0012.37
